STARLINK-35978, 66601

Orbit data source: Space-Track

STARLINK-35978, 66601 is a payload satellite owned by SpaceX/Seattle (US) in LEO that was launched on Sat, 22 Nov 2025 UTC via an FALCON 9 launch vehicle from the Air Force Eastern Test Range (AFETR). Payload-class satellites include a variety of spacecraft equipped with specific instruments for various scientific and technological missions. These include communications satellites like Starlink; space stations such as the ISS; scientific satellites like the Hubble; Earth observation satellites from companies like Planet Labs, Umbra, and HawkEye 360; GPS; miniature CubeSats for education and research; and military/defense satellites.

Loading next visibility...
Identifier
66601, 2025-270P
Orbit
LEO
Country
Flag of USUS
Related business
Manufacturer
SpaceX/Seattle
Mission
Operational Commercial Communications
Bus & Motor
STARLINK V2MO, Unknown motor
Mass
575 kg wet, ~530 kg dry
Launch date (UTC)
2025-11-22 (7 months ago)
Launch vehicle
FALCON 9
Launch site
Air Force Eastern Test Range (AFETR)
Object type
Payload
Rocket body
Debris
Shape & HBR
Box + 2 Pan, 17.7 m
Radar Cross Section
36.964 m², Large (>1 m²)

Expand to show TLE details & history
Last TLE update: 18 hours ago

TLE from 18 hours ago
0 STARLINK-35978
1 66601U 25270P   26171.13108272  .00011038  00000-0  40990-3 0  9994
2 66601  43.0030 197.5915 0001871 281.9621  78.1021 15.27589912 33211
Epoch: 2026-06-20T03:08Z
TLE epoch observation values (Epoch: 2026-06-20T03:08:45.547Z)
Latitude
0.00001°
Longitude
-117.94838°
Altitude
482.531 km
Speed
7.626 km/s
True Right ascension
13h 10m 21s
True Declination
0° 00' 00"
Sunlit
Object was in daylight at epoch
Visualization orbit readout
Latitude
Unknown
Longitude
Unknown
Altitude
Unknown
Speed
Unknown
Apparent Right ascension
Unknown
Apparent Declination
Unknown
Sunlit
N/A
Visualization observer readout
Local Sidereal Time
08:32:44
Azimuth
Unknown
Elevation
Unknown
Doppler factor
Unknown
Orbital elements
Apogee altitude
486.248 km
Perigee altitude
483.68 km
Semi-major axis
6,863.101 km
Eccentricity
0.00019
Inclination
43.003°
RAAN
197.5915°
Arg. of periapsis
281.9621°
True anomaly
78.12308°
Mean anomaly
78.1021°
Eccentric anomaly
78.11259°
Mean motion
3.81736 °/min
Orbital period
94.31 mins
BSTAR
0.0004099
Loading maneuver chart data...
Computing Atmospheric mass density...
Loading historical data...
Loading historical data...
Loading historical data...
Loading historical data...
Loading historical data...
Loading historical data...
Loading historical data...

Documentation

Showing up to 5 results
|